Location: ???????
(55.4362°N, 38.1183°E)
Time: 17:09:22
(UTC+00:00)

Cosmos 2278 Rocket - Pass Details

Date: 28 October 2021
Orbit: 841 x 845 km, 71.0° (Epoch: 28 November)

Event Time Altitude Azimuth Distance (km) Brightness Sun altitude
Rises 15:02:35 0° 323° (NW) 3,419 5.8 -9.7°
Reaches altitude 10° 15:05:18 10° 333° (NNW) 2,480 4.9 -10.1°
Maximum altitude 15:10:26 33° 37° (NE) 1,382 3.0 -10.8°
Enters shadow 15:14:38 14° 96° (E) 2,176 3.7 -11.4°
